Time,TemperatureF,DewpointF,PressureIn,WindDirection,WindDirectionDegrees,WindSpeedMPH,WindSpeedGustMPH,Humidity,HourlyPrecipIn,Conditions,Clouds,dailyrainin,SolarRadiationWatts/m^2,SoftwareType,DateUTC
2013-09-05 00:02:00,83.7,76.9,29.99,ESE,102,5.8,5.8,80,0.00,CLR,SKC,0.00,0.0,WeatherDisplay:10.37,2013-09-05 05:02:00,
2013-09-05 00:07:00,83.8,77.0,29.99,East,89,9.2,9.2,80,0.00,CLR,SKC,0.00,0.0,WeatherDisplay:10.37,2013-09-05 05:07:00,
2013-09-05 00:12:00,83.8,77.0,29.98,East,90,8.0,8.0,80,0.00,CLR,SKC,0.00,0.0,WeatherDisplay:10.37,2013-09-05 05:12:00,
2013-09-05 00:17:00,83.7,76.9,29.98,East,92,8.1,8.1,80,0.00,CLR,SKC,0.00,0.0,WeatherDisplay:10.37,2013-09-05 05:17:00,
2013-09-05 00:22:00,83.7,76.9,29.98,East,98,9.0,9.0,80,0.00,CLR,SKC,0.00,0.0,WeatherDisplay:10.37,2013-09-05 05:22:00,
2013-09-05 00:27:00,83.7,76.9,29.98,ESE,109,5.8,5.8,80,0.00,CLR,SKC,0.00,0.0,WeatherDisplay:10.37,2013-09-05 05:27:00,
2013-09-05 00:32:00,83.7,76.9,29.98,East,90,5.0,5.0,80,0.00,CLR,SKC,0.00,0.0,WeatherDisplay:10.37,2013-09-05 05:32:00,
2013-09-05 00:37:00,83.7,76.9,29.98,SE,131,4.6,4.6,80,0.00,CLR,SKC,0.00,0.0,WeatherDisplay:10.37,2013-09-05 05:37:00,
2013-09-05 00:42:00,83.7,76.9,29.97,ESE,105,6.9,6.9,80,0.00,CLR,SKC,0.00,0.0,WeatherDisplay:10.37,2013-09-05 05:42:00,
2013-09-05 00:47:00,83.7,76.9,29.97,East,101,6.9,6.9,80,0.00,CLR,SKC,0.00,0.0,WeatherDisplay:10.37,2013-09-05 05:47:00,
2013-09-05 00:52:00,83.7,76.9,29.97,ESE,117,3.5,3.5,80,0.00,CLR,SKC,0.00,0.0,WeatherDisplay:10.37,2013-09-05 05:52:00,
2013-09-05 00:57:00,83.6,76.8,29.97,SE,124,6.9,6.9,80,0.00,CLR,SKC,0.00,0.0,WeatherDisplay:10.37,2013-09-05 05:57:00,
2013-09-05 01:02:00,83.5,76.7,29.97,East,84,5.8,5.8,80,0.00,CLR,SKC,0.00,0.0,WeatherDisplay:10.37,2013-09-05 06:02:00,
2013-09-05 01:07:00,83.6,76.8,29.97,ESE,105,5.8,5.8,80,0.00,CLR,SKC,0.00,0.0,WeatherDisplay:10.37,2013-09-05 06:07:00,
2013-09-05 01:12:00,83.5,76.7,29.97,East,94,6.9,6.9,80,0.00,CLR,SKC,0.00,0.0,WeatherDisplay:10.37,2013-09-05 06:12:00,
2013-09-05 01:17:00,83.5,76.7,29.97,East,85,5.0,5.0,80,0.00,CLR,SKC,0.00,0.0,WeatherDisplay:10.37,2013-09-05 06:17:00,
2013-09-05 01:22:00,83.5,77.1,29.97,East,96,6.9,6.9,81,0.00,CLR,SKC,0.00,0.0,WeatherDisplay:10.37,2013-09-05 06:22:00,
2013-09-05 01:27:00,83.5,77.1,29.96,SE,130,4.6,4.6,81,0.00,CLR,SKC,0.00,0.0,WeatherDisplay:10.37,2013-09-05 06:27:00,
2013-09-05 01:32:00,83.5,77.1,29.96,SE,130,3.5,3.5,81,0.00,CLR,SKC,0.00,0.0,WeatherDisplay:10.37,2013-09-05 06:32:00,
2013-09-05 01:37:00,83.5,77.1,29.96,ESE,103,3.5,3.5,81,0.00,CLR,SKC,0.00,0.0,WeatherDisplay:10.37,2013-09-05 06:37:00,
2013-09-05 01:42:00,83.6,77.5,29.96,ESE,109,5.8,5.8,82,0.00,CLR,SKC,0.00,0.0,WeatherDisplay:10.37,2013-09-05 06:42:00,
2013-09-05 01:47:00,83.5,77.4,29.96,ESE,112,3.5,3.5,82,0.00,CLR,SKC,0.00,0.0,WeatherDisplay:10.37,2013-09-05 06:47:00,
2013-09-05 01:52:00,83.5,77.4,29.96,SE,135,4.0,4.0,82,0.00,CLR,SKC,0.00,0.0,WeatherDisplay:10.37,2013-09-05 06:52:00,
2013-09-05 01:57:00,83.4,77.3,29.96,ESE,110,8.1,8.1,82,0.00,CLR,SKC,0.00,0.0,WeatherDisplay:10.37,2013-09-05 06:57:00,
2013-09-05 02:02:00,83.4,77.7,29.96,South,171,3.5,3.5,83,0.00,CLR,SKC,0.00,0.0,WeatherDisplay:10.37,2013-09-05 07:02:00,
2013-09-05 02:07:00,83.4,77.7,29.96,ESE,112,4.6,4.6,83,0.00,CLR,SKC,0.00,0.0,WeatherDisplay:10.37,2013-09-05 07:07:00,
2013-09-05 02:12:00,83.2,77.5,29.96,ESE,122,5.8,5.8,83,0.00,CLR,SKC,0.00,0.0,WeatherDisplay:10.37,2013-09-05 07:12:00,
2013-09-05 02:17:00,83.2,77.5,29.96,ESE,115,5.0,5.0,83,0.00,CLR,SKC,0.00,0.0,WeatherDisplay:10.37,2013-09-05 07:17:00,
2013-09-05 02:22:00,83.1,77.4,29.96,ESE,117,4.6,4.6,83,0.00,CLR,SKC,0.00,0.0,WeatherDisplay:10.37,2013-09-05 07:22:00,
2013-09-05 02:27:00,83.1,77.4,29.95,SE,125,5.8,5.8,83,0.00,CLR,SKC,0.00,0.0,WeatherDisplay:10.37,2013-09-05 07:27:00,
2013-09-05 02:32:00,83.1,77.4,29.95,ESE,113,3.5,3.5,83,0.00,CLR,SKC,0.00,0.0,WeatherDisplay:10.37,2013-09-05 07:32:00,
2013-09-05 02:37:00,83.1,77.4,29.95,ESE,106,3.5,3.5,83,0.00,CLR,SKC,0.00,0.0,WeatherDisplay:10.37,2013-09-05 07:37:00,
2013-09-05 02:42:00,83.1,77.4,29.95,East,90,5.0,5.0,83,0.00,CLR,SKC,0.00,0.0,WeatherDisplay:10.37,2013-09-05 07:42:00,
2013-09-05 02:47:00,83.1,77.4,29.95,East,86,3.5,3.5,83,0.00,CLR,SKC,0.00,0.0,WeatherDisplay:10.37,2013-09-05 07:47:00,
2013-09-05 02:52:00,83.1,77.4,29.95,East,97,3.5,3.5,83,0.00,CLR,SKC,0.00,0.0,WeatherDisplay:10.37,2013-09-05 07:52:00,
2013-09-05 02:57:00,83.1,77.4,29.94,East,97,8.0,8.0,83,0.00,CLR,SKC,0.00,0.0,WeatherDisplay:10.37,2013-09-05 07:57:00,
2013-09-05 03:02:00,83.2,77.5,29.94,ESE,106,6.0,6.0,83,0.00,CLR,SKC,0.00,0.0,WeatherDisplay:10.37,2013-09-05 08:02:00,
2013-09-05 03:07:00,83.2,77.5,29.94,East,98,4.6,4.6,83,0.00,CLR,SKC,0.00,0.0,WeatherDisplay:10.37,2013-09-05 08:07:00,
2013-09-05 03:12:00,83.1,77.4,29.94,ESE,105,5.8,5.8,83,0.00,CLR,SKC,0.00,0.0,WeatherDisplay:10.37,2013-09-05 08:12:00,
2013-09-05 03:17:00,83.1,77.0,29.94,East,86,5.8,5.8,82,0.00,CLR,SKC,0.00,0.0,WeatherDisplay:10.37,2013-09-05 08:17:00,
2013-09-05 03:22:00,83.1,77.4,29.94,East,82,6.0,6.0,83,0.00,CLR,SKC,0.00,0.0,WeatherDisplay:10.37,2013-09-05 08:22:00,
2013-09-05 03:27:00,83.2,77.1,29.94,East,84,6.9,6.9,82,0.00,CLR,SKC,0.00,0.0,WeatherDisplay:10.37,2013-09-05 08:27:00,
2013-09-05 03:32:00,83.2,77.1,29.94,East,101,5.8,5.8,82,0.00,CLR,SKC,0.00,0.0,WeatherDisplay:10.37,2013-09-05 08:32:00,
2013-09-05 03:37:00,83.1,76.7,29.94,East,85,6.9,6.9,81,0.00,CLR,SKC,0.00,0.0,WeatherDisplay:10.37,2013-09-05 08:37:00,
2013-09-05 03:42:00,83.2,76.8,29.94,East,95,8.1,8.1,81,0.00,CLR,SKC,0.00,0.0,WeatherDisplay:10.37,2013-09-05 08:42:00,
2013-09-05 03:47:00,83.2,76.8,29.94,ESE,109,9.2,9.2,81,0.00,CLR,SKC,0.00,0.0,WeatherDisplay:10.37,2013-09-05 08:47:00,
2013-09-05 03:52:00,83.1,76.3,29.94,East,99,9.2,9.2,80,0.00,CLR,SKC,0.00,0.0,WeatherDisplay:10.37,2013-09-05 08:52:00,
2013-09-05 03:57:00,83.2,76.0,29.94,East,84,6.9,6.9,79,0.00,CLR,SKC,0.00,0.0,WeatherDisplay:10.37,2013-09-05 08:57:00,
2013-09-05 04:02:00,83.3,76.5,29.94,East,92,6.9,6.9,80,0.00,CLR,SKC,0.00,0.0,WeatherDisplay:10.37,2013-09-05 09:02:00,
2013-09-05 04:07:00,83.2,76.4,29.94,East,91,10.4,10.4,80,0.00,CLR,SKC,0.00,0.0,WeatherDisplay:10.37,2013-09-05 09:07:00,
2013-09-05 04:12:00,83.3,76.5,29.94,SE,138,9.2,9.2,80,0.00,CLR,SKC,0.00,0.0,WeatherDisplay:10.37,2013-09-05 09:12:00,
2013-09-05 04:17:00,83.2,76.4,29.94,East,88,6.9,6.9,80,0.00,CLR,SKC,0.00,0.0,WeatherDisplay:10.37,2013-09-05 09:17:00,
2013-09-05 04:22:00,83.2,76.0,29.94,East,101,6.9,6.9,79,0.00,CLR,SKC,0.00,0.0,WeatherDisplay:10.37,2013-09-05 09:22:00,
2013-09-05 04:27:00,83.2,76.0,29.94,ESE,107,6.9,6.9,79,0.00,CLR,SKC,0.00,0.0,WeatherDisplay:10.37,2013-09-05 09:27:00,
2013-09-05 04:32:00,83.3,76.1,29.94,East,101,6.9,6.9,79,0.00,CLR,SKC,0.00,0.0,WeatherDisplay:10.37,2013-09-05 09:32:00,
2013-09-05 04:37:00,83.2,76.4,29.94,East,101,7.0,7.0,80,0.00,CLR,SKC,0.00,0.0,WeatherDisplay:10.37,2013-09-05 09:37:00,
2013-09-05 04:42:00,83.2,76.4,29.94,ESE,103,4.6,4.6,80,0.00,CLR,SKC,0.00,0.0,WeatherDisplay:10.37,2013-09-05 09:42:00,
2013-09-05 04:47:00,83.2,76.4,29.94,ESE,109,4.6,4.6,80,0.00,CLR,SKC,0.00,0.0,WeatherDisplay:10.37,2013-09-05 09:47:00,
2013-09-05 04:52:00,83.1,76.7,29.94,East,96,7.0,7.0,81,0.00,CLR,SKC,0.00,0.0,WeatherDisplay:10.37,2013-09-05 09:52:00,
2013-09-05 04:57:00,83.1,76.3,29.94,SE,128,6.9,6.9,80,0.00,CLR,SKC,0.00,0.0,WeatherDisplay:10.37,2013-09-05 09:57:00,
2013-09-05 05:02:00,83.1,76.3,29.94,East,94,5.0,5.0,80,0.00,CLR,SKC,0.00,0.0,WeatherDisplay:10.37,2013-09-05 10:02:00,
2013-09-05 05:07:00,83.1,76.3,29.94,East,101,10.4,10.4,80,0.00,CLR,SKC,0.00,0.0,WeatherDisplay:10.37,2013-09-05 10:07:00,
2013-09-05 05:12:00,83.2,76.4,29.94,East,96,6.9,6.9,80,0.00,CLR,SKC,0.00,0.0,WeatherDisplay:10.37,2013-09-05 10:12:00,
2013-09-05 05:17:00,83.1,76.7,29.94,East,80,5.8,5.8,81,0.00,CLR,SKC,0.00,0.0,WeatherDisplay:10.37,2013-09-05 10:17:00,
2013-09-05 05:22:00,83.1,76.7,29.94,East,81,6.9,6.9,81,0.00,CLR,SKC,0.00,0.0,WeatherDisplay:10.37,2013-09-05 10:22:00,
2013-09-05 05:27:00,83.1,76.7,29.94,East,84,6.9,6.9,81,0.00,CLR,SKC,0.00,0.0,WeatherDisplay:10.37,2013-09-05 10:27:00,
2013-09-05 05:32:00,83.1,76.7,29.94,East,86,6.9,6.9,81,0.00,CLR,SKC,0.00,0.0,WeatherDisplay:10.37,2013-09-05 10:32:00,
2013-09-05 05:37:00,83.1,76.7,29.94,East,94,6.0,6.0,81,0.00,CLR,SKC,0.00,0.0,WeatherDisplay:10.37,2013-09-05 10:37:00,
2013-09-05 05:42:00,83.2,76.8,29.94,East,80,5.8,5.8,81,0.00,CLR,SKC,0.00,0.0,WeatherDisplay:10.37,2013-09-05 10:42:00,
2013-09-05 05:47:00,83.2,76.8,29.94,East,89,6.9,6.9,81,0.00,CLR,SKC,0.00,0.0,WeatherDisplay:10.37,2013-09-05 10:47:00,
2013-09-05 05:52:00,83.2,76.8,29.94,East,84,6.0,6.0,81,0.00,CLR,SKC,0.00,0.0,WeatherDisplay:10.37,2013-09-05 10:52:00,
2013-09-05 05:57:00,83.2,76.8,29.94,East,100,5.8,5.8,81,0.00,CLR,SKC,0.00,0.0,WeatherDisplay:10.37,2013-09-05 10:57:00,
2013-09-05 06:02:00,83.3,77.2,29.94,East,84,4.6,4.6,82,0.00,CLR,SKC,0.00,0.0,WeatherDisplay:10.37,2013-09-05 11:02:00,
2013-09-05 06:07:00,83.4,77.7,29.94,East,79,8.0,8.0,83,0.00,CLR,SKC,0.00,0.0,WeatherDisplay:10.37,2013-09-05 11:07:00,
2013-09-05 06:12:00,83.3,78.0,29.94,East,79,7.0,7.0,84,0.00,CLR,SKC,0.00,0.0,WeatherDisplay:10.37,2013-09-05 11:12:00,
2013-09-05 06:17:00,83.2,77.9,29.94,East,86,9.0,9.0,84,0.00,CLR,SKC,0.00,0.0,WeatherDisplay:10.37,2013-09-05 11:17:00,
2013-09-05 06:22:00,82.9,77.2,29.94,ENE,66,9.2,9.2,83,0.00,CLR,SKC,0.00,0.0,WeatherDisplay:10.37,2013-09-05 11:22:00,
2013-09-05 06:27:00,82.9,77.2,29.94,East,92,9.2,9.2,83,0.00,CLR,SKC,0.00,0.0,WeatherDisplay:10.37,2013-09-05 11:27:00,
2013-09-05 06:32:00,82.9,76.5,29.94,ESE,107,9.2,9.2,81,0.00,CLR,SKC,0.00,0.0,WeatherDisplay:10.37,2013-09-05 11:32:00,
2013-09-05 06:37:00,83.0,76.6,29.94,ENE,71,5.0,5.0,81,0.00,CLR,SKC,0.00,0.0,WeatherDisplay:10.37,2013-09-05 11:37:00,
2013-09-05 06:42:00,83.2,76.8,29.94,ENE,78,4.6,4.6,81,0.00,CLR,SKC,0.00,0.0,WeatherDisplay:10.37,2013-09-05 11:42:00,
2013-09-05 06:47:00,83.1,76.7,29.94,East,98,6.9,6.9,81,0.00,CLR,SKC,0.00,0.0,WeatherDisplay:10.37,2013-09-05 11:47:00,
2013-09-05 06:52:00,83.1,76.7,29.94,East,89,4.6,4.6,81,0.00,CLR,SKC,0.00,0.0,WeatherDisplay:10.37,2013-09-05 11:52:00,
2013-09-05 06:57:00,82.9,76.5,29.94,East,100,5.8,5.8,81,0.00,CLR,SKC,0.00,0.0,WeatherDisplay:10.37,2013-09-05 11:57:00,
2013-09-05 07:02:00,82.9,76.1,29.94,East,89,5.8,5.8,80,0.00,CLR,SKC,0.00,0.0,WeatherDisplay:10.37,2013-09-05 12:02:00,
2013-09-05 07:07:00,83.0,76.6,29.94,East,99,4.6,4.6,81,0.00,CLR,SKC,0.00,0.0,WeatherDisplay:10.37,2013-09-05 12:07:00,
2013-09-05 07:12:00,83.0,76.6,29.95,East,80,4.0,4.0,81,0.00,CLR,SKC,0.00,5.0,WeatherDisplay:10.37,2013-09-05 12:12:00,
2013-09-05 07:17:00,82.9,76.5,29.95,ESE,104,4.6,4.6,81,0.00,CLR,SKC,0.00,9.0,WeatherDisplay:10.37,2013-09-05 12:17:00,
2013-09-05 07:22:00,82.9,76.5,29.95,ENE,72,4.6,4.6,81,0.00,CLR,SKC,0.00,12.0,WeatherDisplay:10.37,2013-09-05 12:22:00,
2013-09-05 07:27:00,83.0,76.6,29.96,East,90,5.8,5.8,81,0.00,CLR,SKC,0.00,21.0,WeatherDisplay:10.37,2013-09-05 12:27:00,
2013-09-05 07:32:00,83.1,76.3,29.96,ENE,57,4.6,4.6,80,0.00,CLR,SKC,0.00,23.0,WeatherDisplay:10.37,2013-09-05 12:32:00,
2013-09-05 07:37:00,83.2,76.4,29.96,ESE,106,8.1,8.1,80,0.00,CLR,SKC,0.00,40.0,WeatherDisplay:10.37,2013-09-05 12:37:00,
2013-09-05 07:42:00,83.4,76.6,29.96,East,100,5.0,5.0,80,0.00,CLR,SKC,0.00,40.0,WeatherDisplay:10.37,2013-09-05 12:42:00,
2013-09-05 07:47:00,83.6,76.8,29.96,ESE,103,5.8,5.8,80,0.00,CLR,SKC,0.00,49.0,WeatherDisplay:10.37,2013-09-05 12:47:00,
2013-09-05 07:52:00,83.8,77.3,29.96,ENE,71,6.9,6.9,81,0.00,CLR,SKC,0.00,79.0,WeatherDisplay:10.37,2013-09-05 12:52:00,
2013-09-05 07:57:00,83.9,77.4,29.97,East,82,10.0,10.0,81,0.00,CLR,SKC,0.00,125.0,WeatherDisplay:10.37,2013-09-05 12:57:00,
2013-09-05 08:02:00,83.9,77.4,29.97,East,83,6.9,6.9,81,0.00,CLR,SKC,0.00,74.0,WeatherDisplay:10.37,2013-09-05 13:02:00,
2013-09-05 08:07:00,83.8,77.7,29.97,ENE,73,8.1,8.1,82,0.00,CLR,SKC,0.00,40.0,WeatherDisplay:10.37,2013-09-05 13:07:00,
2013-09-05 08:12:00,83.5,77.4,29.97,East,85,9.2,9.2,82,0.00,CLR,SKC,0.00,95.0,WeatherDisplay:10.37,2013-09-05 13:12:00,
2013-09-05 08:17:00,83.6,77.5,29.97,East,82,9.2,9.2,82,0.00,CLR,SKC,0.00,285.0,WeatherDisplay:10.37,2013-09-05 13:17:00,
2013-09-05 08:22:00,83.9,77.8,29.97,ENE,69,12.0,12.0,82,0.00,CLR,SKC,0.00,72.0,WeatherDisplay:10.37,2013-09-05 13:22:00,
2013-09-05 08:27:00,83.8,78.1,29.98,ENE,74,9.2,9.2,83,0.00,CLR,SKC,0.00,98.0,WeatherDisplay:10.37,2013-09-05 13:27:00,
2013-09-05 08:32:00,83.8,77.7,29.98,ENE,59,11.5,11.5,82,0.00,CLR,SKC,0.00,86.0,WeatherDisplay:10.37,2013-09-05 13:32:00,
2013-09-05 08:37:00,83.8,77.7,29.98,ENE,57,10.4,10.4,82,0.00,CLR,SKC,0.00,91.0,WeatherDisplay:10.37,2013-09-05 13:37:00,
2013-09-05 08:42:00,83.8,77.7,29.99,ESE,107,7.0,7.0,82,0.00,CLR,SKC,0.00,174.0,WeatherDisplay:10.37,2013-09-05 13:42:00,
2013-09-05 08:47:00,84.2,78.1,29.99,East,98,9.2,9.2,82,0.00,CLR,SKC,0.00,490.0,WeatherDisplay:10.37,2013-09-05 13:47:00,
2013-09-05 08:52:00,84.3,78.2,29.99,ENE,72,10.4,10.4,82,0.00,CLR,SKC,0.00,454.0,WeatherDisplay:10.37,2013-09-05 13:52:00,
2013-09-05 08:57:00,84.3,77.8,29.99,ESE,105,11.5,11.5,81,0.00,CLR,SKC,0.00,399.0,WeatherDisplay:10.37,2013-09-05 13:57:00,
2013-09-05 09:02:00,84.4,77.9,29.99,ESE,109,11.5,11.5,81,0.00,CLR,SKC,0.00,403.0,WeatherDisplay:10.37,2013-09-05 14:02:00,
2013-09-05 09:07:00,84.7,77.8,29.99,East,98,11.5,11.5,80,0.00,CLR,SKC,0.00,424.0,WeatherDisplay:10.37,2013-09-05 14:07:00,
2013-09-05 09:12:00,84.5,78.0,29.99,ENE,75,12.7,12.7,81,0.00,CLR,SKC,0.00,448.0,WeatherDisplay:10.37,2013-09-05 14:12:00,
2013-09-05 09:17:00,84.3,77.8,29.99,East,79,11.5,11.5,81,0.00,CLR,SKC,0.00,151.0,WeatherDisplay:10.37,2013-09-05 14:17:00,
2013-09-05 09:22:00,84.4,77.6,29.99,ENE,73,12.7,12.7,80,0.00,CLR,SKC,0.00,541.0,WeatherDisplay:10.37,2013-09-05 14:22:00,
2013-09-05 09:27:00,84.7,77.5,29.99,ENE,74,11.5,11.5,79,0.00,CLR,SKC,0.00,512.0,WeatherDisplay:10.37,2013-09-05 14:27:00,
2013-09-05 09:32:00,84.8,77.2,29.99,ENE,76,11.5,11.5,78,0.00,CLR,SKC,0.00,510.0,WeatherDisplay:10.37,2013-09-05 14:32:00,
2013-09-05 09:37:00,84.8,77.6,29.99,East,96,11.5,11.5,79,0.00,CLR,SKC,0.00,547.0,WeatherDisplay:10.37,2013-09-05 14:37:00,
2013-09-05 09:42:00,84.6,77.0,30.00,ENE,71,12.7,12.7,78,0.00,CLR,SKC,0.00,149.0,WeatherDisplay:10.37,2013-09-05 14:42:00,
2013-09-05 09:47:00,84.5,77.3,30.00,East,84,12.7,12.7,79,0.00,CLR,SKC,0.00,137.0,WeatherDisplay:10.37,2013-09-05 14:47:00,
2013-09-05 09:52:00,84.6,77.7,30.00,East,96,10.4,10.4,80,0.00,CLR,SKC,0.00,137.0,WeatherDisplay:10.37,2013-09-05 14:52:00,
2013-09-05 09:57:00,84.6,77.7,30.00,East,82,7.0,7.0,80,0.00,CLR,SKC,0.00,633.0,WeatherDisplay:10.37,2013-09-05 14:57:00,
2013-09-05 10:02:00,84.7,77.8,30.00,East,94,12.7,12.7,80,0.00,CLR,SKC,0.00,334.0,WeatherDisplay:10.37,2013-09-05 15:02:00,
2013-09-05 10:07:00,84.9,78.0,30.00,ENE,72,11.5,11.5,80,0.00,CLR,SKC,0.00,657.0,WeatherDisplay:10.37,2013-09-05 15:07:00,
2013-09-05 10:12:00,84.9,77.7,30.00,East,84,11.5,11.5,79,0.00,CLR,SKC,0.00,649.0,WeatherDisplay:10.37,2013-09-05 15:12:00,
2013-09-05 10:17:00,84.9,78.0,30.00,ENE,70,11.5,11.5,80,0.00,CLR,SKC,0.00,202.0,WeatherDisplay:10.37,2013-09-05 15:17:00,
2013-09-05 10:22:00,84.8,77.6,30.00,East,82,13.8,13.8,79,0.00,CLR,SKC,0.00,740.0,WeatherDisplay:10.37,2013-09-05 15:22:00,
2013-09-05 10:27:00,85.0,77.8,30.01,East,84,11.0,11.0,79,0.00,CLR,SKC,0.00,726.0,WeatherDisplay:10.37,2013-09-05 15:27:00,
2013-09-05 10:32:00,84.8,77.6,30.01,ENE,62,11.5,11.5,79,0.00,CLR,SKC,0.00,163.0,WeatherDisplay:10.37,2013-09-05 15:32:00,
2013-09-05 10:37:00,84.6,77.4,30.01,East,98,12.7,12.7,79,0.00,CLR,SKC,0.00,162.0,WeatherDisplay:10.37,2013-09-05 15:37:00,
2013-09-05 10:42:00,84.8,77.2,30.01,East,87,16.1,16.1,78,0.00,CLR,SKC,0.00,728.0,WeatherDisplay:10.37,2013-09-05 15:42:00,
2013-09-05 10:47:00,85.0,77.4,30.01,ENE,65,13.8,13.8,78,0.00,CLR,SKC,0.00,791.0,WeatherDisplay:10.37,2013-09-05 15:47:00,
2013-09-05 10:52:00,84.9,77.3,30.01,ENE,65,12.7,12.7,78,0.00,CLR,SKC,0.00,744.0,WeatherDisplay:10.37,2013-09-05 15:52:00,
2013-09-05 10:57:00,85.1,77.5,30.01,ENE,59,13.8,13.8,78,0.00,CLR,SKC,0.00,773.0,WeatherDisplay:10.37,2013-09-05 15:57:00,
2013-09-05 11:02:00,85.4,77.8,30.01,NE,49,12.7,12.7,78,0.00,CLR,SKC,0.00,802.0,WeatherDisplay:10.37,2013-09-05 16:02:00,
2013-09-05 11:07:00,85.2,77.2,30.01,ENE,74,11.5,11.5,77,0.00,CLR,SKC,0.00,805.0,WeatherDisplay:10.37,2013-09-05 16:07:00,
2013-09-05 11:12:00,85.3,77.3,30.02,ENE,58,13.8,13.8,77,0.00,CLR,SKC,0.00,821.0,WeatherDisplay:10.37,2013-09-05 16:12:00,
2013-09-05 11:17:00,85.0,77.4,30.02,ENE,76,12.7,12.7,78,0.00,CLR,SKC,0.00,805.0,WeatherDisplay:10.37,2013-09-05 16:17:00,
2013-09-05 11:22:00,85.2,77.6,30.02,ENE,65,15.0,15.0,78,0.00,CLR,SKC,0.00,830.0,WeatherDisplay:10.37,2013-09-05 16:22:00,
2013-09-05 11:27:00,85.3,77.3,30.02,East,90,12.7,12.7,77,0.00,CLR,SKC,0.00,851.0,WeatherDisplay:10.37,2013-09-05 16:27:00,
2013-09-05 11:32:00,85.4,77.4,30.02,East,80,11.5,11.5,77,0.00,CLR,SKC,0.00,188.0,WeatherDisplay:10.37,2013-09-05 16:32:00,
2013-09-05 11:37:00,85.3,77.7,30.02,East,88,11.5,11.5,78,0.00,CLR,SKC,0.00,346.0,WeatherDisplay:10.37,2013-09-05 16:37:00,
2013-09-05 11:42:00,85.2,77.2,30.02,East,94,12.7,12.7,77,0.00,CLR,SKC,0.00,413.0,WeatherDisplay:10.37,2013-09-05 16:42:00,
2013-09-05 11:47:00,84.9,77.3,30.02,East,85,13.8,13.8,78,0.00,CLR,SKC,0.00,213.0,WeatherDisplay:10.37,2013-09-05 16:47:00,
2013-09-05 11:52:00,84.8,77.6,30.02,ENE,65,15.0,15.0,79,0.00,CLR,SKC,0.00,230.0,WeatherDisplay:10.37,2013-09-05 16:52:00,
2013-09-05 11:57:00,84.5,77.6,30.01,ENE,69,11.5,11.5,80,0.00,CLR,SKC,0.00,155.0,WeatherDisplay:10.37,2013-09-05 16:57:00,
2013-09-05 12:02:00,84.5,77.6,30.01,ENE,74,12.7,12.7,80,0.00,CLR,SKC,0.00,153.0,WeatherDisplay:10.37,2013-09-05 17:02:00,
2013-09-05 12:07:00,84.5,76.9,30.01,East,80,11.0,11.0,78,0.00,CLR,SKC,0.00,346.0,WeatherDisplay:10.37,2013-09-05 17:07:00,
2013-09-05 12:12:00,84.7,77.1,30.01,ESE,111,11.5,11.5,78,0.00,CLR,SKC,0.00,860.0,WeatherDisplay:10.37,2013-09-05 17:12:00,
2013-09-05 12:17:00,85.0,77.4,30.01,East,83,12.7,12.7,78,0.00,CLR,SKC,0.00,914.0,WeatherDisplay:10.37,2013-09-05 17:17:00,
2013-09-05 12:22:00,84.9,76.9,30.01,East,95,13.8,13.8,77,0.00,CLR,SKC,0.00,898.0,WeatherDisplay:10.37,2013-09-05 17:22:00,
2013-09-05 12:27:00,85.1,77.1,30.00,ENE,76,15.0,15.0,77,0.00,CLR,SKC,0.00,893.0,WeatherDisplay:10.37,2013-09-05 17:27:00,
2013-09-05 12:32:00,85.3,77.3,30.00,ENE,77,13.8,13.8,77,0.00,CLR,SKC,0.00,888.0,WeatherDisplay:10.37,2013-09-05 17:32:00,
2013-09-05 12:37:00,85.2,77.2,30.00,ESE,123,12.7,12.7,77,0.00,CLR,SKC,0.00,891.0,WeatherDisplay:10.37,2013-09-05 17:37:00,
2013-09-05 12:42:00,85.4,77.8,30.00,ENE,67,11.5,11.5,78,0.00,CLR,SKC,0.00,889.0,WeatherDisplay:10.37,2013-09-05 17:42:00,
2013-09-05 12:47:00,85.2,77.9,30.00,ESE,105,14.0,14.0,79,0.00,CLR,SKC,0.00,891.0,WeatherDisplay:10.37,2013-09-05 17:47:00,
2013-09-05 12:52:00,85.1,77.5,30.00,ESE,109,13.8,13.8,78,0.00,CLR,SKC,0.00,889.0,WeatherDisplay:10.37,2013-09-05 17:52:00,
2013-09-05 12:57:00,85.2,77.6,30.00,East,92,12.7,12.7,78,0.00,CLR,SKC,0.00,891.0,WeatherDisplay:10.37,2013-09-05 17:57:00,
2013-09-05 13:02:00,85.4,78.1,30.00,East,88,10.4,10.4,79,0.00,CLR,SKC,0.00,895.0,WeatherDisplay:10.37,2013-09-05 18:02:00,
2013-09-05 13:07:00,85.6,77.6,30.00,East,90,15.0,15.0,77,0.00,CLR,SKC,0.00,904.0,WeatherDisplay:10.37,2013-09-05 18:07:00,
2013-09-05 13:12:00,85.6,77.6,30.00,ENE,78,13.8,13.8,77,0.00,CLR,SKC,0.00,905.0,WeatherDisplay:10.37,2013-09-05 18:12:00,
2013-09-05 13:17:00,85.5,77.9,30.00,East,99,11.5,11.5,78,0.00,CLR,SKC,0.00,912.0,WeatherDisplay:10.37,2013-09-05 18:17:00,
2013-09-05 13:22:00,85.0,77.0,30.00,ENE,76,13.8,13.8,77,0.00,CLR,SKC,0.00,918.0,WeatherDisplay:10.37,2013-09-05 18:22:00,
2013-09-05 13:27:00,85.2,77.2,29.99,ESE,102,12.7,12.7,77,0.00,CLR,SKC,0.00,928.0,WeatherDisplay:10.37,2013-09-05 18:27:00,
2013-09-05 13:32:00,85.2,76.8,29.99,East,92,15.0,15.0,76,0.00,CLR,SKC,0.00,940.0,WeatherDisplay:10.37,2013-09-05 18:32:00,
2013-09-05 13:37:00,85.2,77.6,29.99,East,85,12.7,12.7,78,0.00,CLR,SKC,0.00,900.0,WeatherDisplay:10.37,2013-09-05 18:37:00,
2013-09-05 13:42:00,85.2,77.6,29.99,ENE,71,13.8,13.8,78,0.00,CLR,SKC,0.00,921.0,WeatherDisplay:10.37,2013-09-05 18:42:00,
2013-09-05 13:47:00,85.6,77.9,29.99,East,96,13.8,13.8,78,0.00,CLR,SKC,0.00,1107.0,WeatherDisplay:10.37,2013-09-05 18:47:00,
2013-09-05 13:52:00,85.5,77.5,29.99,ENE,76,15.0,15.0,77,0.00,CLR,SKC,0.00,1044.0,WeatherDisplay:10.37,2013-09-05 18:52:00,
2013-09-05 13:57:00,84.8,77.9,29.99,East,79,11.5,11.5,80,0.04,RA,SKC,0.04,109.0,WeatherDisplay:10.37,2013-09-05 18:57:00,
2013-09-05 14:02:00,84.2,78.1,29.99,East,80,15.0,15.0,82,0.04,RA,SKC,0.04,149.0,WeatherDisplay:10.37,2013-09-05 19:02:00,
2013-09-05 14:07:00,84.3,77.8,29.99,East,96,12.7,12.7,81,0.04,CLR,SKC,0.04,951.0,WeatherDisplay:10.37,2013-09-05 19:07:00,
2013-09-05 14:12:00,84.9,77.7,29.99,East,88,15.0,15.0,79,0.04,CLR,SKC,0.04,884.0,WeatherDisplay:10.37,2013-09-05 19:12:00,
2013-09-05 14:17:00,85.1,77.8,29.99,East,90,16.1,16.1,79,0.04,CLR,SKC,0.04,911.0,WeatherDisplay:10.37,2013-09-05 19:17:00,
2013-09-05 14:22:00,85.4,77.4,29.99,East,88,12.7,12.7,77,0.04,CLR,SKC,0.04,970.0,WeatherDisplay:10.37,2013-09-05 19:22:00,
2013-09-05 14:27:00,85.3,77.3,29.98,East,96,17.3,17.3,77,0.04,CLR,SKC,0.04,896.0,WeatherDisplay:10.37,2013-09-05 19:27:00,
2013-09-05 14:32:00,85.4,77.4,29.98,East,89,12.0,12.0,77,0.04,CLR,SKC,0.04,865.0,WeatherDisplay:10.37,2013-09-05 19:32:00,
2013-09-05 14:37:00,85.7,77.7,29.98,East,98,16.1,16.1,77,0.04,CLR,SKC,0.04,877.0,WeatherDisplay:10.37,2013-09-05 19:37:00,
2013-09-05 14:42:00,85.7,77.3,29.97,ESE,102,17.3,17.3,76,0.04,CLR,SKC,0.04,867.0,WeatherDisplay:10.37,2013-09-05 19:42:00,
2013-09-05 14:47:00,85.7,77.3,29.97,ESE,102,17.3,17.3,76,0.04,CLR,SKC,0.04,877.0,WeatherDisplay:10.37,2013-09-05 19:47:00,
2013-09-05 14:52:00,85.7,77.7,29.97,East,89,16.1,16.1,77,0.04,CLR,SKC,0.04,921.0,WeatherDisplay:10.37,2013-09-05 19:52:00,
2013-09-05 14:57:00,85.8,77.4,29.97,ESE,121,16.1,16.1,76,0.01,CLR,SKC,0.04,874.0,WeatherDisplay:10.37,2013-09-05 19:57:00,
2013-09-05 15:02:00,85.7,77.7,29.97,ENE,75,15.0,15.0,77,0.00,CLR,SKC,0.04,889.0,WeatherDisplay:10.37,2013-09-05 20:02:00,
2013-09-05 15:07:00,85.9,77.5,29.97,East,90,15.0,15.0,76,0.00,CLR,SKC,0.04,768.0,WeatherDisplay:10.37,2013-09-05 20:07:00,
2013-09-05 15:12:00,85.9,77.1,29.97,East,86,16.1,16.1,75,0.00,CLR,SKC,0.04,668.0,WeatherDisplay:10.37,2013-09-05 20:12:00,
2013-09-05 15:17:00,86.0,77.1,29.97,East,90,15.0,15.0,75,0.00,CLR,SKC,0.04,640.0,WeatherDisplay:10.37,2013-09-05 20:17:00,
2013-09-05 15:22:00,85.9,77.5,29.97,East,88,13.0,13.0,76,0.00,CLR,SKC,0.04,731.0,WeatherDisplay:10.37,2013-09-05 20:22:00,
2013-09-05 15:27:00,85.7,76.9,29.97,ESE,108,16.1,16.1,75,0.00,CLR,SKC,0.04,633.0,WeatherDisplay:10.37,2013-09-05 20:27:00,
2013-09-05 15:32:00,85.9,77.1,29.97,East,92,12.7,12.7,75,0.00,CLR,SKC,0.04,694.0,WeatherDisplay:10.37,2013-09-05 20:32:00,
2013-09-05 15:37:00,86.1,76.8,29.97,East,101,12.0,12.0,74,0.00,CLR,SKC,0.04,554.0,WeatherDisplay:10.37,2013-09-05 20:37:00,
2013-09-05 15:42:00,85.8,77.4,29.97,ENE,77,12.0,12.0,76,0.00,CLR,SKC,0.04,476.0,WeatherDisplay:10.37,2013-09-05 20:42:00,
2013-09-05 15:47:00,85.7,77.3,29.97,East,98,16.1,16.1,76,0.00,CLR,SKC,0.04,656.0,WeatherDisplay:10.37,2013-09-05 20:47:00,
2013-09-05 15:52:00,85.9,77.1,29.97,East,87,15.0,15.0,75,0.00,CLR,SKC,0.04,635.0,WeatherDisplay:10.37,2013-09-05 20:52:00,
2013-09-05 15:57:00,85.7,76.0,29.96,East,82,17.3,17.3,73,0.00,CLR,SKC,0.04,501.0,WeatherDisplay:10.37,2013-09-05 20:57:00,
2013-09-05 16:02:00,85.9,75.8,29.96,ESE,119,13.8,13.8,72,0.00,CLR,SKC,0.04,504.0,WeatherDisplay:10.37,2013-09-05 21:02:00,
2013-09-05 16:07:00,86.1,76.4,29.96,ENE,74,15.0,15.0,73,0.00,CLR,SKC,0.04,584.0,WeatherDisplay:10.37,2013-09-05 21:07:00,
2013-09-05 16:12:00,86.2,77.3,29.96,East,101,11.5,11.5,75,0.00,CLR,SKC,0.04,622.0,WeatherDisplay:10.37,2013-09-05 21:12:00,
2013-09-05 16:17:00,86.1,76.0,29.96,East,80,12.7,12.7,72,0.00,CLR,SKC,0.04,582.0,WeatherDisplay:10.37,2013-09-05 21:17:00,
2013-09-05 16:22:00,86.3,76.2,29.96,East,84,15.0,15.0,72,0.00,CLR,SKC,0.04,504.0,WeatherDisplay:10.37,2013-09-05 21:22:00,
2013-09-05 16:27:00,86.3,76.2,29.97,East,86,12.7,12.7,72,0.00,CLR,SKC,0.04,417.0,WeatherDisplay:10.37,2013-09-05 21:27:00,
2013-09-05 16:32:00,86.2,77.3,29.97,East,82,12.7,12.7,75,0.00,CLR,SKC,0.04,399.0,WeatherDisplay:10.37,2013-09-05 21:32:00,
2013-09-05 16:37:00,85.8,77.0,29.97,East,88,15.0,15.0,75,0.00,CLR,SKC,0.04,334.0,WeatherDisplay:10.37,2013-09-05 21:37:00,
2013-09-05 16:42:00,85.7,76.9,29.97,East,86,15.0,15.0,75,0.00,CLR,SKC,0.04,302.0,WeatherDisplay:10.37,2013-09-05 21:42:00,
2013-09-05 16:47:00,85.7,76.5,29.97,ESE,107,18.4,18.4,74,0.00,CLR,SKC,0.04,366.0,WeatherDisplay:10.37,2013-09-05 21:47:00,
2013-09-05 16:52:00,85.6,77.2,29.97,East,81,15.0,15.0,76,0.00,CLR,SKC,0.04,360.0,WeatherDisplay:10.37,2013-09-05 21:52:00,
2013-09-05 16:57:00,85.8,77.8,29.96,East,81,16.1,16.1,77,0.00,CLR,SKC,0.04,283.0,WeatherDisplay:10.37,2013-09-05 21:57:00,
2013-09-05 17:02:00,85.6,76.8,29.96,East,96,15.0,15.0,75,0.00,CLR,SKC,0.04,225.0,WeatherDisplay:10.37,2013-09-05 22:02:00,
2013-09-05 17:07:00,85.5,77.1,29.96,ESE,112,14.0,14.0,76,0.00,CLR,SKC,0.04,206.0,WeatherDisplay:10.37,2013-09-05 22:07:00,
2013-09-05 17:12:00,85.5,77.1,29.96,ESE,112,13.8,13.8,76,0.00,CLR,SKC,0.04,185.0,WeatherDisplay:10.37,2013-09-05 22:12:00,
2013-09-05 17:17:00,85.4,77.0,29.96,East,90,15.0,15.0,76,0.00,CLR,SKC,0.04,174.0,WeatherDisplay:10.37,2013-09-05 22:17:00,
2013-09-05 17:22:00,85.5,77.5,29.96,East,88,12.0,12.0,77,0.00,CLR,SKC,0.04,167.0,WeatherDisplay:10.37,2013-09-05 22:22:00,
2013-09-05 17:27:00,85.4,77.8,29.97,East,93,12.7,12.7,78,0.00,CLR,SKC,0.04,156.0,WeatherDisplay:10.37,2013-09-05 22:27:00,
2013-09-05 17:32:00,85.4,77.8,29.97,ESE,111,11.5,11.5,78,0.00,CLR,SKC,0.04,128.0,WeatherDisplay:10.37,2013-09-05 22:32:00,
2013-09-05 17:37:00,85.4,77.0,29.97,ESE,111,13.8,13.8,76,0.00,CLR,SKC,0.04,151.0,WeatherDisplay:10.37,2013-09-05 22:37:00,
2013-09-05 17:42:00,85.2,77.2,29.97,ESE,113,16.1,16.1,77,0.00,CLR,SKC,0.04,151.0,WeatherDisplay:10.37,2013-09-05 22:42:00,
2013-09-05 17:47:00,85.0,77.4,29.97,ESE,110,10.4,10.4,78,0.00,CLR,SKC,0.04,148.0,WeatherDisplay:10.37,2013-09-05 22:47:00,
2013-09-05 17:52:00,84.6,75.8,29.97,ESE,123,11.5,11.5,75,0.00,CLR,SKC,0.04,146.0,WeatherDisplay:10.37,2013-09-05 22:52:00,
2013-09-05 17:57:00,84.7,76.3,29.97,ESE,121,10.0,10.0,76,0.00,CLR,SKC,0.04,141.0,WeatherDisplay:10.37,2013-09-05 22:57:00,
2013-09-05 18:02:00,84.7,76.3,29.97,East,93,10.0,10.0,76,0.00,CLR,SKC,0.04,130.0,WeatherDisplay:10.37,2013-09-05 23:02:00,
2013-09-05 18:07:00,84.6,76.6,29.97,East,94,17.3,17.3,77,0.00,CLR,SKC,0.04,121.0,WeatherDisplay:10.37,2013-09-05 23:07:00,
2013-09-05 18:12:00,84.7,77.5,29.96,East,99,10.4,10.4,79,0.00,CLR,SKC,0.04,113.0,WeatherDisplay:10.37,2013-09-05 23:12:00,
2013-09-05 18:17:00,84.4,76.8,29.96,East,94,12.7,12.7,78,0.00,CLR,SKC,0.04,104.0,WeatherDisplay:10.37,2013-09-05 23:17:00,
2013-09-05 18:22:00,84.4,76.4,29.96,ENE,69,11.5,11.5,77,0.00,CLR,SKC,0.04,95.0,WeatherDisplay:10.37,2013-09-05 23:22:00,
2013-09-05 18:27:00,84.5,76.5,29.96,ESE,108,6.9,6.9,77,0.00,CLR,SKC,0.04,88.0,WeatherDisplay:10.37,2013-09-05 23:27:00,
2013-09-05 18:32:00,84.5,76.5,29.96,ESE,116,10.0,10.0,77,0.00,CLR,SKC,0.04,83.0,WeatherDisplay:10.37,2013-09-05 23:32:00,
2013-09-05 18:37:00,84.5,76.1,29.96,ESE,110,11.5,11.5,76,0.00,CLR,SKC,0.04,76.0,WeatherDisplay:10.37,2013-09-05 23:37:00,
2013-09-05 18:42:00,84.3,75.9,29.96,East,94,10.0,10.0,76,0.00,CLR,SKC,0.04,70.0,WeatherDisplay:10.37,2013-09-05 23:42:00,
2013-09-05 18:47:00,84.1,76.1,29.96,East,87,11.5,11.5,77,0.00,CLR,SKC,0.04,63.0,WeatherDisplay:10.37,2013-09-05 23:47:00,
2013-09-05 18:52:00,84.2,77.0,29.96,East,89,11.5,11.5,79,0.00,CLR,SKC,0.04,56.0,WeatherDisplay:10.37,2013-09-05 23:52:00,
2013-09-05 18:57:00,84.0,76.8,29.96,ESE,112,12.7,12.7,79,0.00,CLR,SKC,0.04,49.0,WeatherDisplay:10.37,2013-09-05 23:57:00,
2013-09-05 19:02:00,83.8,76.2,29.96,East,81,12.7,12.7,78,0.00,CLR,SKC,0.04,44.0,WeatherDisplay:10.37,2013-09-06 00:02:00,
2013-09-05 19:07:00,83.9,76.3,29.96,ESE,115,11.5,11.5,78,0.00,CLR,SKC,0.04,37.0,WeatherDisplay:10.37,2013-09-06 00:07:00,
2013-09-05 19:12:00,83.8,76.6,29.96,SE,133,11.5,11.5,79,0.00,CLR,SKC,0.04,30.0,WeatherDisplay:10.37,2013-09-06 00:12:00,
2013-09-05 19:17:00,83.7,77.2,29.96,ESE,111,11.5,11.5,81,0.00,CLR,SKC,0.04,25.0,WeatherDisplay:10.37,2013-09-06 00:17:00,
2013-09-05 19:22:00,83.5,77.1,29.96,East,98,12.7,12.7,81,0.00,CLR,SKC,0.04,19.0,WeatherDisplay:10.37,2013-09-06 00:22:00,
2013-09-05 19:27:00,83.1,76.7,29.96,ESE,115,9.2,9.2,81,0.00,CLR,SKC,0.04,14.0,WeatherDisplay:10.37,2013-09-06 00:27:00,
2013-09-05 19:32:00,82.9,76.1,29.96,ESE,121,11.5,11.5,80,0.00,CLR,SKC,0.04,9.0,WeatherDisplay:10.37,2013-09-06 00:32:00,
2013-09-05 19:37:00,83.0,76.2,29.96,ESE,110,10.4,10.4,80,0.00,CLR,SKC,0.04,5.0,WeatherDisplay:10.37,2013-09-06 00:37:00,
2013-09-05 19:42:00,83.0,75.8,29.96,East,100,10.4,10.4,79,0.00,CLR,SKC,0.04,0.0,WeatherDisplay:10.37,2013-09-06 00:42:00,
2013-09-05 19:47:00,83.0,76.2,29.96,SE,134,6.9,6.9,80,0.00,CLR,SKC,0.04,0.0,WeatherDisplay:10.37,2013-09-06 00:47:00,
2013-09-05 19:52:00,83.0,76.2,29.96,ESE,111,11.5,11.5,80,0.00,CLR,SKC,0.04,0.0,WeatherDisplay:10.37,2013-09-06 00:52:00,
2013-09-05 19:57:00,82.9,76.5,29.97,ESE,121,3.5,4.1,81,0.00,CLR,SKC,0.04,0.0,WeatherDisplay:10.37,2013-09-06 00:57:00,
2013-09-05 20:02:00,82.9,76.5,29.97,East,87,11.5,11.5,81,0.00,CLR,SKC,0.04,0.0,WeatherDisplay:10.37,2013-09-06 01:02:00,
2013-09-05 20:07:00,82.9,76.5,29.97,SE,128,6.0,6.0,81,0.00,CLR,SKC,0.04,0.0,WeatherDisplay:10.37,2013-09-06 01:07:00,
2013-09-05 20:12:00,82.9,76.5,29.98,SE,136,9.0,9.0,81,0.00,CLR,SKC,0.04,0.0,WeatherDisplay:10.37,2013-09-06 01:12:00,
2013-09-05 20:17:00,83.0,76.9,29.98,East,101,6.0,6.7,82,0.00,CLR,SKC,0.04,0.0,WeatherDisplay:10.37,2013-09-06 01:17:00,
2013-09-05 20:22:00,83.0,76.9,29.98,ESE,119,6.9,6.9,82,0.00,CLR,SKC,0.04,0.0,WeatherDisplay:10.37,2013-09-06 01:22:00,
2013-09-05 20:27:00,82.9,76.5,29.99,SE,131,10.4,10.4,81,0.00,CLR,SKC,0.04,0.0,WeatherDisplay:10.37,2013-09-06 01:27:00,
2013-09-05 20:32:00,83.0,76.6,29.99,East,101,10.4,10.4,81,0.00,CLR,SKC,0.04,0.0,WeatherDisplay:10.37,2013-09-06 01:32:00,
2013-09-05 20:37:00,83.0,76.6,29.99,East,81,5.8,5.8,81,0.00,CLR,SKC,0.04,0.0,WeatherDisplay:10.37,2013-09-06 01:37:00,
2013-09-05 20:42:00,83.1,77.0,29.99,ESE,102,12.0,12.0,82,0.00,CLR,SKC,0.04,0.0,WeatherDisplay:10.37,2013-09-06 01:42:00,
2013-09-05 20:47:00,83.0,76.9,29.99,East,84,13.0,13.0,82,0.00,CLR,SKC,0.04,0.0,WeatherDisplay:10.37,2013-09-06 01:47:00,
2013-09-05 20:52:00,83.0,76.9,29.99,East,101,9.2,9.2,82,0.00,CLR,SKC,0.04,0.0,WeatherDisplay:10.37,2013-09-06 01:52:00,
2013-09-05 20:57:00,83.0,76.9,29.99,East,90,11.5,11.5,82,0.00,CLR,SKC,0.04,0.0,WeatherDisplay:10.37,2013-09-06 01:57:00,
2013-09-05 21:02:00,83.0,77.3,29.99,East,94,12.7,12.7,83,0.00,CLR,SKC,0.04,0.0,WeatherDisplay:10.37,2013-09-06 02:02:00,
2013-09-05 21:07:00,83.0,76.9,29.99,East,86,9.2,9.2,82,0.00,CLR,SKC,0.04,0.0,WeatherDisplay:10.37,2013-09-06 02:07:00,
2013-09-05 21:12:00,83.0,76.9,29.99,East,94,10.4,10.4,82,0.00,CLR,SKC,0.04,0.0,WeatherDisplay:10.37,2013-09-06 02:12:00,
2013-09-05 21:17:00,83.0,77.3,29.99,East,94,10.4,10.4,83,0.00,CLR,SKC,0.04,0.0,WeatherDisplay:10.37,2013-09-06 02:17:00,
2013-09-05 21:22:00,83.0,77.3,29.99,East,99,10.4,10.4,83,0.00,CLR,SKC,0.04,0.0,WeatherDisplay:10.37,2013-09-06 02:22:00,
2013-09-05 21:27:00,83.0,77.3,29.99,ESE,108,11.5,11.5,83,0.00,CLR,SKC,0.04,0.0,WeatherDisplay:10.37,2013-09-06 02:27:00,
2013-09-05 21:32:00,83.0,76.9,29.99,East,80,10.4,10.4,82,0.00,CLR,SKC,0.04,0.0,WeatherDisplay:10.37,2013-09-06 02:32:00,
2013-09-05 21:37:00,83.1,77.0,29.99,East,90,11.5,11.5,82,0.00,CLR,SKC,0.04,0.0,WeatherDisplay:10.37,2013-09-06 02:37:00,
2013-09-05 21:42:00,83.1,76.7,29.99,East,86,12.7,12.7,81,0.00,CLR,SKC,0.04,0.0,WeatherDisplay:10.37,2013-09-06 02:42:00,
2013-09-05 21:47:00,83.2,76.8,29.99,SE,128,9.2,9.2,81,0.00,CLR,SKC,0.04,0.0,WeatherDisplay:10.37,2013-09-06 02:47:00,
2013-09-05 21:52:00,83.1,76.3,29.99,SSE,153,10.4,10.4,80,0.00,CLR,SKC,0.04,0.0,WeatherDisplay:10.37,2013-09-06 02:52:00,
2013-09-05 21:57:00,83.2,76.8,29.99,East,90,6.9,6.9,81,0.00,CLR,SKC,0.04,0.0,WeatherDisplay:10.37,2013-09-06 02:57:00,
2013-09-05 22:02:00,83.2,76.8,29.99,ESE,115,11.5,11.5,81,0.00,CLR,SKC,0.04,0.0,WeatherDisplay:10.37,2013-09-06 03:02:00,
2013-09-05 22:07:00,83.2,76.8,29.99,East,98,10.4,10.4,81,0.00,CLR,SKC,0.04,0.0,WeatherDisplay:10.37,2013-09-06 03:07:00,
2013-09-05 22:12:00,83.2,77.1,29.99,SE,130,11.5,11.5,82,0.00,CLR,SKC,0.04,0.0,WeatherDisplay:10.37,2013-09-06 03:12:00,
2013-09-05 22:17:00,82.8,76.7,29.99,SE,135,9.2,9.2,82,0.00,CLR,SKC,0.04,0.0,WeatherDisplay:10.37,2013-09-06 03:17:00,
2013-09-05 22:22:00,82.5,76.1,29.99,ESE,111,5.8,5.8,81,0.00,CLR,SKC,0.04,0.0,WeatherDisplay:10.37,2013-09-06 03:22:00,
2013-09-05 22:27:00,82.7,76.6,29.99,SE,146,5.8,5.8,82,0.00,CLR,SKC,0.04,0.0,WeatherDisplay:10.37,2013-09-06 03:27:00,
2013-09-05 22:32:00,82.9,76.8,29.99,ESE,103,4.6,4.6,82,0.00,CLR,SKC,0.04,0.0,WeatherDisplay:10.37,2013-09-06 03:32:00,
2013-09-05 22:37:00,83.0,77.3,29.99,SE,126,3.5,3.5,83,0.00,CLR,SKC,0.04,0.0,WeatherDisplay:10.37,2013-09-06 03:37:00,
2013-09-05 22:42:00,83.0,77.3,30.00,East,89,6.0,6.0,83,0.00,CLR,SKC,0.04,0.0,WeatherDisplay:10.37,2013-09-06 03:42:00,
2013-09-05 22:47:00,83.0,77.3,30.00,East,88,4.6,5.3,83,0.00,CLR,SKC,0.04,0.0,WeatherDisplay:10.37,2013-09-06 03:47:00,
2013-09-05 22:52:00,82.9,76.8,30.00,ESE,120,5.8,5.8,82,0.00,CLR,SKC,0.04,0.0,WeatherDisplay:10.37,2013-09-06 03:52:00,
2013-09-05 22:57:00,83.0,76.9,30.00,East,81,6.9,6.9,82,0.00,CLR,SKC,0.04,0.0,WeatherDisplay:10.37,2013-09-06 03:57:00,
2013-09-05 23:01:00,83.1,77.0,30.00,ESE,110,4.0,4.0,82,0.00,CLR,SKC,0.04,0.0,WeatherDisplay:10.37,2013-09-06 04:01:00,
2013-09-05 23:02:00,83.1,77.0,30.00,ESE,105,6.9,6.9,82,0.00,CLR,SKC,0.04,0.0,WeatherDisplay:10.37,2013-09-06 04:02:00,
2013-09-05 23:07:00,83.2,77.1,30.00,ESE,103,6.9,6.9,82,0.00,CLR,SKC,0.04,0.0,WeatherDisplay:10.37,2013-09-06 04:07:00,
2013-09-05 23:12:00,83.1,77.0,30.00,SE,138,8.1,8.1,82,0.00,CLR,SKC,0.04,0.0,WeatherDisplay:10.37,2013-09-06 04:12:00,
2013-09-05 23:17:00,83.1,77.0,30.00,SE,126,6.9,6.9,82,0.00,CLR,SKC,0.04,0.0,WeatherDisplay:10.37,2013-09-06 04:17:00,
2013-09-05 23:22:00,83.0,76.9,30.00,East,92,6.9,6.9,82,0.00,CLR,SKC,0.04,0.0,WeatherDisplay:10.37,2013-09-06 04:22:00,
2013-09-05 23:27:00,83.0,76.9,30.00,ESE,109,5.8,5.8,82,0.00,CLR,SKC,0.04,0.0,WeatherDisplay:10.37,2013-09-06 04:27:00,
2013-09-05 23:32:00,83.0,76.6,30.00,East,95,4.6,4.6,81,0.00,CLR,SKC,0.04,0.0,WeatherDisplay:10.37,2013-09-06 04:32:00,
2013-09-05 23:37:00,83.0,76.6,30.00,ESE,114,3.5,3.5,81,0.00,CLR,SKC,0.04,0.0,WeatherDisplay:10.37,2013-09-06 04:37:00,
2013-09-05 23:42:00,83.0,76.6,30.00,East,86,6.9,6.9,81,0.00,CLR,SKC,0.04,0.0,WeatherDisplay:10.37,2013-09-06 04:42:00,
2013-09-05 23:47:00,83.1,76.7,30.00,ESE,113,6.9,6.9,81,0.00,CLR,SKC,0.04,0.0,WeatherDisplay:10.37,2013-09-06 04:47:00,
2013-09-05 23:52:00,83.1,76.7,30.00,ENE,70,5.8,5.8,81,0.00,CLR,SKC,0.04,0.0,WeatherDisplay:10.37,2013-09-06 04:52:00,
2013-09-05 23:57:00,83.1,76.7,29.99,East,88,4.0,4.0,81,0.00,CLR,SKC,0.04,0.0,WeatherDisplay:10.37,2013-09-06 04:57:00,